Location: Kelshall
(52.0000°N, 0.0500°W)
Time: 10:35:49
(UTC+00:00)

ATLAS 2AS CENTAUR R/B - Visible Passes

Search period start: 17 January 2021 00:00
Search period end: 27 January 2021 00:00
Orbit: 943 x 1268 km, 63.7° (Epoch: 31 December)

Date Brightness Start Highest point End Pass type
(mag) Time Alt. Az. Time Alt. Az. Time Alt. Az.
17 Jan 3.4 18:35:01 10° WSW 18:42:54 61° NW 18:48:02 23° NE visible
17 Jan 4.0 20:28:11 10° WNW 20:35:21 36° N 20:35:28 36° N visible
17 Jan 5.1 22:21:02 10° NW 22:22:54 18° NW 22:22:54 18° NW visible
18 Jan 3.2 17:49:52 10° SW 17:57:50 77° NW 18:04:44 14° NE visible
18 Jan 3.9 19:42:37 10° W 19:49:58 39° NNW 19:52:10 33° NNE visible
18 Jan 4.6 21:35:47 10° NW 21:39:36 26° NNW 21:39:36 26° NNW visible
19 Jan 3.1 17:04:56 10° SW 17:12:54 84° SE 17:20:43 10° NE visible
19 Jan 3.7 18:57:06 10° W 19:04:39 45° NNW 19:08:51 25° NNE visible
19 Jan 4.2 20:50:25 10° WNW 20:56:17 33° NNW 20:56:17 33° NNW visible
19 Jan 5.3 22:42:38 10° NW 22:43:43 14° NW 22:43:43 14° NW visible
20 Jan 3.5 18:11:40 10° WSW 18:19:26 54° NNW 18:25:31 17° NE visible
20 Jan 3.9 20:04:56 10° WNW 20:12:02 35° N 20:12:56 34° N visible
20 Jan 4.8 21:57:34 10° NW 22:00:22 22° NW 22:00:22 22° NW visible
21 Jan 3.3 17:26:23 10° WSW 17:34:18 67° NW 17:42:01 10° NE visible
21 Jan 3.9 19:19:24 10° WNW 19:26:37 37° NNW 19:29:35 28° NNE visible
21 Jan 4.3 21:12:24 10° NW 21:17:01 30° NNW 21:17:01 30° NNW visible
21 Jan 5.4 23:04:05 10° NW 23:04:27 12° NW 23:04:27 12° NW visible
22 Jan 3.8 18:33:50 10° W 18:41:16 41° NNW 18:46:13 20° NE visible
22 Jan 4.0 20:27:06 10° WNW 20:33:40 35° N 20:33:40 35° N visible
22 Jan 5.0 22:19:05 10° NW 22:21:06 19° NW 22:21:06 19° NW visible
23 Jan 3.7 17:48:20 10° W 17:55:59 48° NNW 18:02:51 12° NE visible
23 Jan 3.9 19:41:41 10° WNW 19:48:43 34° N 19:50:17 32° NNE visible
23 Jan 4.5 21:34:04 10° NW 21:37:43 28° NNW 21:37:43 28° NNW visible
24 Jan 3.5 17:02:58 10° WSW 17:10:48 59° NW 17:18:25 10° NE visible
24 Jan 4.0 18:56:10 10° WNW 19:03:18 35° N 19:06:55 24° NE visible
24 Jan 4.0 20:48:57 10° NW 20:54:21 35° NNW 20:54:21 35° NNW visible
24 Jan 5.2 22:40:29 10° NW 22:41:47 16° NW 22:41:47 16° NW visible
25 Jan 3.9 18:10:37 10° W 18:17:55 39° NNW 18:23:33 16° NE visible
25 Jan 3.8 20:03:43 10° NW 20:10:50 36° N 20:10:59 36° NNE visible
25 Jan 4.7 21:55:32 10° NW 21:58:25 25° NW 21:58:25 25° NW visible
26 Jan 3.8 17:25:04 10° W 17:32:35 44° NNW 17:39:50 10° NE visible
26 Jan 3.8 19:18:23 10° WNW 19:25:25 35° N 19:27:38 29° NE visible
26 Jan 4.1 21:10:32 10° NW 21:15:03 35° NNW 21:15:03 35° NNW visible
26 Jan 5.3 23:01:54 10° NW 23:02:29 13° NW 23:02:29 13° NW visible
